Hourly Weather Roundup
Issued by NWS Central Illinois

Home | Current Version | Previous Version | Text Only | Print | Product List | Glossary On
Versions: 1 2 3 4 5 6 7 8 9 10 11 12 13 14 15 16 17 18 19 20 21 22 23 24 25 26 27 28 29 30 31 32 33 34 35 36 37 38 39 40 41 42 43 44 45 46 47 48 49 50
000
NZUS43 KILX 260610
HWRILX

Area Weather Roundup
National Weather Service Lincoln IL
100 AM CDT WED APR 26 2017

NOTE:  "FAIR" indicates few or no clouds below 12,000 feet, with
       no sigificant weather and/or obstructions to visibility.


CITY           SKY/WX    TMP DP  RH WIND       PRES   REMARKS
Bloomington    MOCLDY    65  55  70 S13       29.54F
6HR MIN TEMP:  64; 6HR MAX TEMP:  74;

Champaign      PTCLDY    67  55  65 SE16      29.57F
6HR MIN TEMP:  67; 6HR MAX TEMP:  75;

Danville       CLOUDY    64  55  70 SE8       29.58S
6HR MIN TEMP:  64; 6HR MAX TEMP:  74;

Decatur        CLOUDY    67  56  67 S14       29.55F
6HR MIN TEMP:  66; 6HR MAX TEMP:  74;

Effingham      CLOUDY    66  58  76 SE8       29.60F
6HR MIN TEMP:  65; 6HR MAX TEMP:  74;

Flora          MOCLDY    64  58  80 SE7       29.60F
6HR MIN TEMP:  64; 6HR MAX TEMP:  75;

Galesburg      CLOUDY    68  50  52 S12       29.46S
6HR MIN TEMP:  68; 6HR MAX TEMP:  75;

Jacksonville   MOCLDY    68  50  53 S10       29.49F
6HR MIN TEMP:  67; 6HR MAX TEMP:  75;

Lacon          CLOUDY    68  53  57 S10G21    29.48F
6HR MIN TEMP:  68; 6HR MAX TEMP:  75;

Lawrenceville  MOCLDY    63  57  81 SE8       29.63S
6HR MIN TEMP:  63; 6HR MAX TEMP:  75;

Litchfield     PTCLDY    66  51  58 SE12      29.53F
6HR MIN TEMP:  66; 6HR MAX TEMP:  74;

$$


CITY           SKY/WX    TMP DP  RH WIND       PRES   REMARKS
Lincoln        CLOUDY    68  54  60 S8        29.51F
6HR MIN TEMP:  68; 6HR MAX TEMP:  77;

Macomb         CLOUDY    69  50  50 S13       29.48F
6HR MIN TEMP:  69; 6HR MAX TEMP:  76;

Mattoon        CLOUDY    66  58  75 SE9       29.58F
6HR MIN TEMP:  66; 6HR MAX TEMP:  73;

Mt Carmel AP   PTCLDY    64  56  75 SE7       29.62F
6HR MIN TEMP:  64; 6HR MAX TEMP:  74;

Olney-Noble AP CLOUDY    65  61  89 SE6       29.61F
Paris AP       CLOUDY    65  57  75 SE10      29.61F
6HR MIN TEMP:  65; 6HR MAX TEMP:  74;

Peoria         CLOUDY    68  51  54 S12       29.50F
6HR MIN TEMP:  68; 6HR MAX TEMP:  77;

Pontiac        CLOUDY    68  56  65 S14       29.53F
6HR MIN TEMP:  68; 6HR MAX TEMP:  77;

Rantoul        CLOUDY    67  57  68 S12       29.57F
6HR MIN TEMP:  67; 6HR MAX TEMP:  77;

Robinson       CLOUDY    64  57  78 SE8       29.63F
6HR MIN TEMP:  63; 6HR MAX TEMP:  73;

Springfield    PTCLDY    69  51  52 S14       29.51F
6HR MIN TEMP:  69; 6HR MAX TEMP:  77;

Taylorville    CLOUDY    65  54  67 SE10      29.53F
6HR MIN TEMP:  64; 6HR MAX TEMP:  74;

$$

...REGIONAL REPORTS...


CITY           SKY/WX    TMP DP  RH WIND       PRES   REMARKS
Chicago O`Hare CLOUDY    68  53  58 S10       29.53F
Kankakee       CLOUDY    65  54  65 SE9       29.57S
Moline         MOCLDY    72  48  42 S15G25    29.43S
Mount Sterling MOCLDY    67  51  56 S8        29.46F
Mount Vernon   CLOUDY    65  56  72 S6        29.60S
Pittsfield     CLOUDY    71  52  51 S12       29.48F
Quincy         MOCLDY    71  52  50 S14       29.45F
Rockford       CLOUDY    67  52  58 SE14G22   29.50F
$$


CITY           SKY/WX    TMP DP  RH WIND       PRES   REMARKS
Burlington     CLOUDY    70  52  52 S12       29.45R
Cedar Rapids   CLOUDY    57  57 100 E5        29.41F
Des Moines     DRIZZLE   49  45  86 NW9       29.50S
Kirksville     CLOUDY    62  56  80 CALM      29.45F
Ottumwa        CLOUDY    58  54  86 W13       29.45R
St Louis       MOCLDY    71  51  49 S10       29.50F
$$


CITY           SKY/WX    TMP DP  RH WIND       PRES   REMARKS
Terre Haute    CLOUDY    64  55  72 SE7       29.63S
Evansville     CLOUDY    64  56  75 CALM      29.64S
Indianapolis   PTCLDY    63  55  75 SE8       29.66R
Lafayette      MOCLDY    64  56  75 SE6       29.61F
Madison        CLOUDY    65  50  58 SE9       29.47F
Milwaukee      CLOUDY    59  51  75 SE13      29.55F
$$






USA.gov is the U.S. government's official web portal to all federal, state and local government web resources and services.